Date String (YYYY-MM-DD hh:mm:ss) UTC,Instrument flags,Ambient pressure (hPa),Sample flow (lpm),Bypass flow (lpm),Sample temperature (°C),Ambient temperature (°C),ASC tube jacket temperature (°C),LED temperature (°C),Box temperature (°C),Sample RH (%),Span deviation,Mass concentration (μg/m³),Mass concentration (μg/m³),Mass concentration (μg/m³)
DateTimeUTC,F1_M11,P_M11,Q1_M11,Q2_M11,T1_M11,T2_M11,T3_M11,T4_M11,T5_M11,U1_M11,ZSPAN_M11,X0_M11,X2_M11,X1_M11
2022-06-15 18:00:00,,0824.0,5.01,0.00,29.5,28.5,00.0,38.3,31.4,06.0,0000.0,0004.48,0002.15,0001.78
2022-06-15 18:01:00,,0824.0,5.00,0.00,29.5,28.6,00.0,38.3,31.5,05.9,0000.0,0005.43,0002.19,0001.78
2022-06-15 18:02:00,,0823.9,5.00,0.00,29.5,28.6,00.0,38.3,31.5,05.9,0000.0,0005.65,0002.20,0001.79
2022-06-15 18:03:00,,0823.9,5.00,0.00,29.6,28.7,00.0,38.4,31.5,05.9,0000.0,0005.56,0002.18,0001.79
2022-06-15 18:04:00,,0823.9,5.00,0.00,29.6,28.6,00.0,38.4,31.5,06.0,0000.0,0005.49,0002.16,0001.77
2022-06-15 18:05:00,,0823.8,5.01,0.00,29.6,27.9,00.0,38.3,31.3,06.1,0000.0,0005.47,0002.16,0001.77
2022-06-15 18:06:00,,0823.9,4.99,0.00,29.5,27.3,00.0,38.2,31.1,06.2,0000.0,0005.65,0002.15,0001.76
2022-06-15 18:07:00,,0824.0,4.99,0.00,29.4,27.3,00.0,38.2,31.1,06.1,0000.0,0005.80,0002.18,0001.76
2022-06-15 18:08:00,,0824.0,5.01,0.00,29.4,27.3,00.0,38.2,31.1,06.2,0000.0,0006.06,0002.20,0001.76
2022-06-15 18:09:00,,0824.0,4.99,0.00,29.4,27.5,00.0,38.2,31.1,06.3,0000.0,0005.47,0002.13,0001.74
2022-06-15 18:10:00,,0823.9,5.00,0.00,29.3,27.6,00.0,38.2,31.2,06.3,0000.0,0004.47,0002.10,0001.72
2022-06-15 18:11:00,,0823.9,5.00,0.00,29.3,27.8,00.0,38.2,31.2,06.4,0000.0,0004.45,0002.10,0001.70
2022-06-15 18:12:00,,0823.8,4.99,0.00,29.3,27.9,00.0,38.2,31.2,06.3,0000.0,0003.69,0002.06,0001.69
2022-06-15 18:13:00,,0823.8,5.00,0.00,29.4,28.0,00.0,38.2,31.3,06.4,0000.0,0004.31,0002.05,0001.68
2022-06-15 18:14:00,,0823.8,4.99,0.00,29.4,28.2,00.0,38.2,31.3,06.3,0000.0,0004.33,0002.04,0001.66
2022-06-15 18:15:00,,0823.8,5.00,0.00,29.4,28.3,00.0,38.2,31.3,06.3,0000.0,0004.30,0002.01,0001.66
2022-06-15 18:16:00,,0823.7,5.01,0.00,29.4,28.4,00.0,38.2,31.4,06.4,0000.0,0004.27,0001.97,0001.64
2022-06-15 18:17:00,,0823.7,5.01,0.00,29.5,28.4,00.0,38.3,31.4,06.5,0000.0,0004.23,0001.97,0001.63
2022-06-15 18:18:00,,0823.8,5.01,0.00,29.5,28.5,00.0,38.3,31.4,06.5,0000.0,0004.35,0001.91,0001.61
2022-06-15 18:19:00,,0823.7,4.98,0.00,29.5,28.6,00.0,38.3,31.5,06.4,0000.0,0004.11,0001.88,0001.60
2022-06-15 18:20:00,,0823.7,4.99,0.00,29.5,28.7,00.0,38.3,31.5,06.4,0000.0,0004.19,0001.89,0001.59
2022-06-15 18:21:00,,0823.7,5.00,0.00,29.6,28.3,00.0,38.3,31.4,06.5,0000.0,0004.23,0001.92,0001.60
2022-06-15 18:22:00,,0823.8,5.02,0.00,29.5,27.5,00.0,38.2,31.2,06.7,0000.0,0004.24,0001.91,0001.60
2022-06-15 18:23:00,,0823.8,4.99,0.00,29.4,27.2,00.0,38.2,31.1,06.9,0000.0,0004.18,0001.93,0001.60
2022-06-15 18:24:00,,0823.8,5.00,0.00,29.4,27.2,00.0,38.2,31.1,06.9,0000.0,0003.89,0001.97,0001.59
2022-06-15 18:25:00,,0823.8,5.00,0.00,29.3,27.3,00.0,38.2,31.1,06.7,0000.0,0003.91,0001.98,0001.60
2022-06-15 18:26:00,,0823.7,5.00,0.00,29.3,27.5,00.0,38.2,31.1,06.8,0000.0,0004.01,0002.03,0001.60
2022-06-15 18:27:00,,0823.8,5.00,0.00,29.3,27.6,00.0,38.2,31.1,06.9,0000.0,0004.08,0002.06,0001.62
2022-06-15 18:28:00,,0823.7,4.98,0.00,29.3,27.8,00.0,38.2,31.2,06.9,0000.0,0004.00,0002.07,0001.64
2022-06-15 18:29:00,,0823.7,4.99,0.00,29.3,27.9,00.0,38.2,31.2,06.9,0000.0,0003.75,0002.11,0001.67
2022-06-15 18:30:00,,0823.7,5.02,0.00,29.3,28.0,00.0,38.2,31.2,06.9,0000.0,0003.81,0002.13,0001.69
2022-06-15 18:31:00,,0823.7,5.01,0.00,29.3,28.1,00.0,38.2,31.3,07.1,0000.0,0003.92,0002.20,0001.73
2022-06-15 18:32:00,,0823.7,5.01,0.00,29.4,28.2,00.0,38.2,31.3,06.9,0000.0,0003.96,0002.22,0001.75
2022-06-15 18:33:00,,0823.7,5.00,0.00,29.4,28.3,00.0,38.2,31.3,06.8,0000.0,0004.83,0002.23,0001.77
2022-06-15 18:34:00,,0823.7,5.00,0.00,29.4,28.4,00.0,38.2,31.4,06.7,0000.0,0005.50,0002.29,0001.79
2022-06-15 18:35:00,,0823.7,4.99,0.00,29.4,28.5,00.0,38.2,31.4,06.8,0000.0,0005.39,0002.29,0001.81
2022-06-15 18:36:00,,0823.6,5.00,0.00,29.5,28.6,00.0,38.2,31.5,06.7,0000.0,0006.08,0002.34,0001.84
2022-06-15 18:37:00,,0823.3,5.00,0.00,29.5,28.6,00.0,38.2,31.4,06.9,0000.0,0006.24,0002.36,0001.87
2022-06-15 18:38:00,,0823.7,5.01,0.00,29.5,27.9,00.0,38.2,31.3,07.0,0000.0,0006.28,0002.37,0001.86
2022-06-15 18:39:00,,0823.7,5.01,0.00,29.4,27.3,00.0,38.2,31.1,06.9,0000.0,0006.48,0002.42,0001.86
2022-06-15 18:40:00,,0823.7,4.98,0.00,29.3,27.2,00.0,38.1,31.1,06.7,0000.0,0006.73,0002.43,0001.86
2022-06-15 18:41:00,,0823.7,5.00,0.00,29.3,27.3,00.0,38.1,31.0,06.8,0000.0,0006.85,0002.41,0001.85
2022-06-15 18:42:00,,0823.7,5.01,0.00,29.3,27.4,00.0,38.1,31.1,06.8,0000.0,0006.86,0002.41,0001.85
2022-06-15 18:43:00,,0823.6,5.00,0.00,29.3,27.5,00.0,38.1,31.1,06.9,0000.0,0006.87,0002.40,0001.83
2022-06-15 18:44:00,,0823.7,4.99,0.00,29.3,27.7,00.0,38.1,31.1,06.6,0000.0,0006.29,0002.42,0001.81
2022-06-15 18:45:00,,0823.7,5.01,0.00,29.3,27.9,00.0,38.1,31.2,06.9,0000.0,0005.47,0002.38,0001.81
2022-06-15 18:46:00,,0823.7,5.01,0.00,29.3,28.0,00.0,38.1,31.2,07.0,0000.0,0004.95,0002.31,0001.79
2022-06-15 18:47:00,,0823.7,5.00,0.00,29.3,28.1,00.0,38.1,31.2,07.0,0000.0,0004.36,0002.30,0001.77
2022-06-15 18:48:00,,0823.6,5.00,0.00,29.3,28.2,00.0,38.1,31.3,07.1,0000.0,0004.18,0002.29,0001.76
2022-06-15 18:49:00,,0823.6,4.99,0.00,29.4,28.3,00.0,38.2,31.3,06.9,0000.0,0004.13,0002.29,0001.76
2022-06-15 18:50:00,,0823.6,5.01,0.00,29.4,28.4,00.0,38.2,31.4,06.9,0000.0,0004.01,0002.27,0001.76
2022-06-15 18:51:00,,0823.6,5.00,0.00,29.4,28.5,00.0,38.2,31.4,06.9,0000.0,0003.77,0002.26,0001.75
2022-06-15 18:52:00,,0823.6,5.01,0.00,29.5,28.5,00.0,38.2,31.4,06.9,0000.0,0003.56,0002.26,0001.77
2022-06-15 18:53:00,,0823.6,4.99,0.00,29.4,27.7,00.0,38.1,31.2,06.9,0000.0,0003.45,0002.23,0001.77
2022-06-15 18:54:00,,0823.2,5.01,0.00,29.3,27.1,00.0,38.1,31.0,07.1,0000.0,0003.55,0002.23,0001.78
2022-06-15 18:55:00,,0823.5,5.00,0.00,29.3,27.1,00.0,38.1,31.0,07.4,0000.0,0003.50,0002.21,0001.77
2022-06-15 18:56:00,,0823.4,5.00,0.00,29.2,27.2,00.0,38.1,31.0,07.3,0000.0,0003.51,0002.22,0001.78
2022-06-15 18:57:00,,0823.4,5.00,0.00,29.2,27.3,00.0,38.1,31.0,07.2,0000.0,0003.59,0002.27,0001.78
2022-06-15 18:58:00,,0823.4,5.00,0.00,29.2,27.5,00.0,38.1,31.0,07.3,0000.0,0003.48,0002.27,0001.78
2022-06-15 18:59:00,,0823.5,4.99,0.00,29.2,27.6,00.0,38.1,31.1,07.4,0000.0,0003.48,0002.25,0001.79
